QPF
0.00 0.00 0.00 0.00 0.00 0.00 0.00 0.00 0.00 0.00 0.00 0.00 0.00 0.00 0.00 0.00 0.00 0.00 0.00 0.00 0.00 0.00 0.00 0.00 0.00 0.00 0.00 0.00 0.00 0.00 0.00 0.00 0.00 0.00 0.00 0.00 0.00 0.00 0.00 0.00 0.00 0.00 0.00 0.00
0.00 0.00 0.00 0.00 0.00 0.00 0.00 0.00 0.00 0.00 0.00 0.00 0.00 0.00 0.00 0.00 0.00 0.00 0.00 0.00 0.00 0.00 0.00 0.00 0.00 0.00 0.00 0.00 0.00 0.00 0.00 0.00 0.00 0.00 0.00 0.00 0.00 0.00 0.00 0.00 0.00 0.00 0.00 0.00
0.00 0.00 0.00 0.00 0.00 0.00 0.00 0.00 0.00 0.00 0.00 0.00 0.00 0.00 0.00 0.00 0.00 0.00 0.00 0.00 0.00 0.00 0.00 0.00 0.00 0.00 0.00 0.00 0.00 0.00 0.00 0.00 0.00 0.00 0.00 0.00 0.00 0.00 0.00 0.00 0.00 0.00 0.00 0.00
0.00 0.00 0.00 0.00 0.00 0.00 0.00 0.00 0.00 0.00 0.00 0.00 0.00 0.00 0.00 0.00 0.00 0.00 0.00 0.00 0.00 0.00 0.00 0.00 0.00 0.00 0.00 0.00 0.00 0.00 0.00 0.00 0.00 0.00 0.00 0.00 0.00 0.00 0.00 0.00 0.00 0.00 0.00 0.00
0.00 0.00 0.00 0.00 0.00 0.00 0.00 0.00 0.00 0.00 0.00 0.00 0.00 0.00 0.00 0.00 0.00 0.00 0.00 0.00 0.00 0.00 0.00 0.00 0.00 0.00 0.00 0.00 0.00 0.00 0.00 0.00 0.00 0.00 0.00 0.00 0.00 0.00 0.00 0.00 0.00 0.00 0.00 0.00
0.00 0.00 0.00 0.00 0.00 0.00 0.00 0.00 0.00 0.00 0.00 0.00 0.00 0.00 0.00 0.00 0.00 0.00 0.00 0.00 0.00 0.00 0.00 0.00 0.00 0.00 0.00 0.00 0.00 0.00 0.00 0.00 0.00 0.00 0.00 0.00 0.00 0.00 0.00 0.00 0.00 0.00 0.00 0.00
0.00 0.00 0.00 0.00 0.00 0.00 0.00 0.00 0.00 0.00 0.00 0.00 0.00 0.00 0.00 0.00 0.00 0.00 0.00 0.00 0.00 0.00 0.00 0.00 0.00 0.00 0.00 0.00 0.00 0.00 0.00 0.00 0.00 0.00 0.00 0.00 0.00 0.00 0.00 0.00 0.00 0.00 0.00 0.00
0.00 0.00 0.00 0.00 0.00 0.00 0.00 0.00 0.00 0.00 0.00 0.00 0.00 0.00 0.00 0.00 0.00 0.00 0.00 0.00 0.00 0.00 0.00 0.00 0.00 0.00 0.00 0.00 0.00 0.00 0.00 0.00 0.00 0.00 0.00 0.00 0.00 0.00 0.00 0.00 0.00 0.00 0.00 0.00
0.00 0.00 0.00 0.00 0.00 0.00 0.00 0.00 0.00 0.00 0.00 0.00 0.00 0.00 0.00 0.00 0.00 0.00 0.00 0.00 0.00 0.00 0.00 0.00 0.00 0.00 0.00 0.00 0.00 0.00 0.00 0.00 0.00 0.00 0.00 0.00 0.00 0.00 0.00 0.00 0.00 0.00 0.00 0.00
0.00 0.00 0.00 0.00 0.00 0.00 0.00 0.00 0.00 0.00 0.00 0.00 0.00 0.00 0.00 0.00 0.00 0.00 0.00 0.00 0.00 0.00 0.00 0.00 0.00 0.00 0.00 0.00 0.00 0.00 0.00 0.00 0.00 0.00 0.00 0.00 0.00 0.00 0.00 0.00 0.00 0.00 0.00 0.00
0.00 0.00 0.00 0.00 0.00 0.00 0.00 0.00 0.00 0.00 0.00 0.00 0.00 0.00 0.00 0.00 0.00 0.00 0.00 0.00 0.00 0.00 0.00 0.00 0.00 0.00 0.00 0.00 0.00 0.00 0.00 0.00 0.00 0.00 0.00 0.00 0.00 0.00 0.00 0.00 0.00 0.00 0.00 0.00
0.00 0.00 0.00 0.00 0.00 0.00 0.00 0.00 0.00 0.00 0.00 0.00 0.00 0.00 0.00 0.00 0.00 0.00 0.00 0.00 0.00 0.00 0.00 0.00 0.00 0.00 0.00 0.00 0.00 0.00 0.00 0.00 0.00 0.00 0.00 0.00 0.00 0.00 0.00 0.00 0.00 0.00 0.00 0.00
0.00 0.00 0.00 0.00 0.00 0.00 0.00 0.00 0.00 0.00 0.00 0.00 0.00 0.00 0.00 0.00 0.00 0.00 0.00 0.00 0.00 0.00 0.00 0.00 0.00 0.00 0.00 0.00 0.00 0.00 0.00 0.00 0.00 0.00 0.00 0.00 0.00 0.00 0.00 0.00 0.00 0.00 0.00 0.00
0.00 0.00 0.00 0.00 0.00 0.00 0.00 0.00 0.00 0.00 0.00 0.00 0.00 0.00 0.00 0.00 0.00 0.00 0.00 0.00 0.00 0.00 0.00 0.00 0.00 0.00 0.00 0.00 0.00 0.00 0.00 0.00 0.00 0.00 0.00 0.00 0.00 0.00 0.00 0.00 0.00 0.00 0.00 0.00
0.00 0.00 0.00 0.00 0.00 0.00 0.00 0.00 0.00 0.00 0.00 0.00 0.00 0.00 0.00 0.00 0.00 0.00 0.00 0.00 0.00 0.00 0.00 0.00 0.00 0.00 0.00 0.00 0.00 0.00 0.00 0.00 0.00 0.00 0.00 0.00 0.00 0.00 0.00 0.00 0.00 0.00 0.00 0.00
0.00 0.00 0.00 0.00 0.00 0.00 0.00 0.00 0.00 0.00 0.00 0.00 0.00 0.00 0.00 0.00 0.00 0.00 0.00 0.00 0.00 0.00 0.00 0.00 0.00 0.00 0.00 0.00 0.00 0.00 0.00 0.00 0.00 0.00 0.00 0.00 0.00 0.00 0.00 0.00 0.00 0.00 0.00 0.00
0.00 0.00 0.00 0.00 0.00 0.00 0.00 0.00 0.00 0.00 0.00 0.00 0.00 0.00 0.00 0.00 0.00 0.00 0.00 0.00 0.00 0.00 0.00 0.00 0.00 0.00 0.00 0.00 0.00 0.00 0.00 0.00 0.00 0.00 0.00 0.00 0.00 0.00 0.00 0.00 0.00 0.00 0.00 0.00
0.00 0.00 0.00 0.00 0.00 0.00 0.00 0.00 0.00 0.00 0.00 0.00 0.00 0.00 0.00 0.00 0.00 0.00 0.00 0.00 0.00 0.00 0.00 0.00 0.00 0.00 0.00 0.00 0.00 0.00 0.00 0.00 0.00 0.00 0.00 0.00 0.00 0.00 0.00 0.00 0.00 0.00 0.00 0.00
0.00 0.00 0.00 0.00 0.00 0.00 0.00 0.00 0.00 0.00 0.00 0.00 0.00 0.00 0.00 0.00 0.00 0.00 0.00 0.00 0.00 0.00 0.00 0.00 0.00 0.00 0.00 0.00 0.00 0.00 0.00 0.00 0.00 0.00 0.00 0.00 0.00 0.00 0.00 0.00 0.00 0.00 0.00 0.00
0.00 0.00 0.00 0.00 0.00 0.00 0.00 0.00 0.00 0.00 0.00 0.00 0.00 0.00 0.00 0.00 0.00 0.00 0.00 0.00 0.00 0.00 0.00 0.00 0.00 0.00 0.00 0.00 0.00 0.00 0.00 0.00 0.00 0.00 0.00 0.00 0.00 0.00 0.00 0.00 0.00 0.00 0.00 0.00
0.00 0.00 0.00 0.00 0.00 0.00 0.00 0.00 0.00 0.00 0.00 0.00 0.00 0.00 0.00 0.00 0.00 0.00 0.00 0.00 0.00 0.00 0.00 0.00 0.00 0.00 0.00 0.00 0.00 0.00 0.00 0.00 0.00 0.00 0.00 0.00 0.00 0.00 0.00 0.00 0.00 0.00 0.00 0.00
0.00 0.00 0.00 0.00 0.00 0.00 0.00 0.00 0.00 0.00 0.00 0.00 0.00 0.00 0.00 0.00 0.00 0.00 0.00 0.00 0.00 0.00 0.00 0.00 0.00 0.00 0.00 0.00 0.00 0.00 0.00 0.00 0.00 0.00 0.00 0.00 0.00 0.00 0.00 0.00 0.00 0.00 0.00 0.00
0.00 0.00 0.00 0.00 0.00 0.00 0.00 0.00 0.00 0.00 0.00 0.00 0.00 0.00 0.00 0.00 0.00 0.00 0.00 0.00 0.00 0.00 0.00 0.00 0.00 0.00 0.00 0.00 0.00 0.00 0.00 0.00 0.00 0.00 0.00 0.00 0.00 0.00 0.00 0.00 0.00 0.00 0.00 0.00
0.00 0.00 0.00 0.00 0.00 0.00 0.00 0.00 0.00 0.00 0.00 0.00 0.00 0.00 0.00 0.00 0.00 0.00 0.00 0.00 0.00 0.00 0.00 0.00 0.00 0.00 0.00 0.00 0.00 0.00 0.00 0.00 0.00 0.00 0.00 0.00 0.00 0.00 0.00 0.00 0.00 0.00 0.00 0.00
0.00 0.00 0.00 0.00 0.00 0.00 0.00 0.00 0.00 0.00 0.00 0.00 0.00 0.00 0.00 0.00 0.00 0.00 0.00 0.00 0.00 0.00 0.00 0.00 0.00 0.00 0.00 0.00 0.00 0.00 0.00 0.00 0.00 0.00 0.00 0.00 0.00 0.00 0.00 0.00 0.00 0.00 0.00 0.00
0.00 0.00 0.00 0.00 0.00 0.01 0.01 0.00 0.00 0.00 0.00 0.00 0.00 0.00 0.00 0.00 0.00 0.00 0.00 0.00 0.00 0.00 0.00 0.00 0.00 0.00 0.00 0.00 0.00 0.00 0.00 0.00 0.00 0.00 0.00 0.00 0.00 0.00 0.00 0.00 0.00 0.00 0.00 0.00
MSLP
1015.17 1015.64 1016.68 1017.12 1017.13 1017.13 1017.34 1017.50 1017.54 1017.41 1017.45 1017.18 1016.84 1016.56 1016.32 1016.35 1016.16 1016.09 1016.06 1015.99 1016.15 1016.57 1017.17 1017.30 1017.37 1017.43 1017.63 1017.99 1018.17 1018.40 1018.63 1019.20 1019.69 1019.84 1019.86 1019.84 1019.66 1019.65 1019.37 1019.27 1019.41 1019.41 1019.31 1019.12
1016.16 1016.89 1017.21 1017.37 1017.35 1017.37 1017.55 1017.73 1017.69 1017.58 1017.55 1017.28 1017.01 1016.75 1016.81 1016.73 1017.02 1017.05 1016.78 1016.72 1016.88 1017.10 1017.39 1017.68 1017.87 1018.08 1018.28 1018.25 1018.68 1019.32 1019.70 1020.01 1020.22 1020.31 1020.37 1020.36 1020.16 1019.69 1019.44 1019.27 1019.09 1018.95 1018.93 1018.66
1016.88 1017.50 1017.32 1017.53 1017.79 1017.82 1017.90 1017.93 1018.15 1018.32 1017.88 1017.71 1017.45 1017.07 1016.95 1017.13 1017.34 1017.31 1017.37 1017.47 1017.54 1017.59 1017.89 1018.17 1018.49 1018.78 1019.04 1019.38 1019.79 1019.99 1020.20 1020.36 1020.39 1020.43 1020.37 1020.28 1020.02 1019.66 1019.37 1019.11 1018.88 1018.58 1018.55 1018.37
1017.61 1017.70 1017.81 1017.94 1018.13 1018.28 1018.20 1018.33 1018.45 1018.46 1018.47 1018.14 1018.03 1017.51 1017.47 1017.81 1017.71 1017.78 1017.83 1017.96 1018.17 1018.45 1018.53 1018.85 1019.21 1019.49 1019.90 1020.22 1020.41 1020.43 1020.55 1020.52 1020.60 1020.63 1020.52 1020.48 1020.42 1020.20 1019.89 1019.70 1019.33 1018.92 1018.52 1018.17
1018.41 1018.26 1018.25 1018.25 1018.43 1018.49 1018.63 1018.68 1018.68 1018.68 1018.63 1018.56 1018.35 1018.10 1018.13 1018.20 1018.21 1018.36 1018.57 1018.57 1018.64 1019.09 1019.43 1019.67 1020.09 1020.45 1020.71 1020.86 1020.78 1020.82 1020.70 1020.76 1020.96 1020.95 1020.77 1020.48 1020.26 1020.29 1020.23 1019.93 1019.27 1018.71 1018.15 1017.93
1018.84 1018.59 1018.66 1018.64 1018.50 1018.64 1018.79 1018.88 1019.08 1019.25 1019.20 1019.30 1019.32 1019.13 1019.13 1019.06 1019.34 1019.05 1018.97 1019.04 1019.36 1019.64 1019.96 1020.35 1020.75 1020.86 1020.99 1020.98 1020.79 1020.72 1020.63 1020.74 1020.77 1020.60 1020.50 1020.37 1020.17 1019.83 1019.87 1019.44 1019.01 1018.45 1018.13 1017.89
1019.58 1019.33 1019.03 1018.92 1018.83 1018.79 1019.00 1019.29 1019.65 1019.94 1019.93 1020.01 1019.98 1019.70 1019.85 1020.13 1020.01 1019.95 1019.88 1020.00 1020.37 1020.57 1020.58 1020.74 1020.86 1020.96 1020.98 1020.97 1020.89 1020.75 1020.64 1020.47 1020.59 1020.45 1020.57 1020.53 1020.24 1020.25 1019.87 1019.58 1019.31 1018.93 1018.28 1017.92
1020.74 1020.09 1019.77 1019.60 1019.71 1019.83 1019.94 1020.31 1020.89 1021.34 1021.77 1021.29 1020.62 1020.33 1020.28 1020.49 1020.33 1020.15 1020.42 1020.80 1021.07 1021.15 1021.18 1021.18 1021.26 1021.23 1021.24 1021.21 1021.04 1020.90 1020.76 1020.59 1020.33 1020.27 1020.13 1020.60 1020.78 1020.51 1020.30 1019.67 1019.37 1018.87 1018.46 1018.40
1021.51 1020.86 1020.33 1020.20 1020.16 1020.29 1020.45 1021.17 1021.92 1022.44 1023.68 1022.78 1021.37 1020.92 1020.75 1020.50 1020.44 1020.56 1020.68 1020.90 1021.23 1021.41 1021.36 1021.21 1021.18 1021.09 1020.98 1020.97 1021.05 1021.07 1020.84 1020.78 1020.62 1020.58 1020.70 1020.69 1020.59 1020.25 1019.80 1019.30 1018.94 1018.33 1018.12 1018.24
1022.07 1021.76 1021.17 1020.87 1020.68 1020.79 1020.81 1021.79 1022.30 1022.77 1023.55 1023.27 1021.84 1021.14 1020.23 1020.50 1020.64 1020.85 1021.05 1021.30 1021.40 1021.36 1021.16 1020.93 1020.83 1020.81 1020.89 1020.95 1020.91 1020.80 1020.60 1020.67 1020.67 1020.73 1020.72 1020.64 1020.44 1020.07 1019.74 1019.18 1018.50 1018.03 1017.97 1018.07
1022.34 1022.51 1022.16 1021.71 1021.72 1021.77 1021.87 1022.29 1023.10 1023.72 1024.23 1024.07 1023.45 1021.13 1020.30 1020.49 1020.79 1020.93 1021.24 1021.52 1021.43 1021.31 1021.17 1020.95 1020.87 1020.76 1020.79 1020.82 1020.76 1020.61 1020.52 1020.51 1020.38 1020.48 1020.55 1020.31 1019.90 1019.59 1019.31 1018.99 1018.60 1018.47 1018.42 1018.36
1022.99 1023.18 1022.83 1022.58 1022.51 1022.42 1022.50 1022.97 1023.44 1024.11 1024.67 1024.48 1023.98 1021.56 1020.32 1020.37 1020.73 1020.83 1021.00 1021.29 1021.30 1021.17 1020.97 1020.85 1020.75 1020.70 1020.66 1020.72 1020.71 1020.65 1020.52 1020.42 1020.44 1020.38 1020.11 1019.95 1019.89 1019.81 1019.41 1018.94 1018.66 1018.54 1018.51 1018.52
1023.19 1023.74 1023.64 1023.34 1023.47 1023.05 1023.09 1023.44 1023.93 1024.52 1024.70 1024.25 1023.83 1021.40 1020.31 1020.46 1020.35 1020.74 1020.99 1021.22 1021.14 1020.94 1020.79 1020.69 1020.72 1020.80 1020.84 1020.69 1020.69 1020.63 1020.61 1020.53 1020.46 1020.45 1020.43 1020.21 1019.98 1019.78 1019.60 1019.62 1019.45 1019.08 1018.78 1018.64
1023.38 1024.22 1024.37 1024.22 1023.76 1023.83 1023.95 1023.87 1024.15 1024.31 1024.56 1023.67 1022.43 1021.16 1020.12 1020.18 1020.48 1020.85 1021.19 1021.38 1021.12 1020.95 1020.76 1020.83 1020.81 1020.85 1020.96 1020.83 1020.80 1020.74 1020.64 1020.52 1020.31 1020.16 1020.11 1020.10 1020.02 1019.88 1019.71 1019.78 1019.59 1019.27 1018.98 1018.78
1024.10 1024.80 1024.89 1024.62 1024.18 1024.17 1023.88 1023.71 1023.85 1024.00 1023.53 1023.46 1021.75 1021.32 1020.42 1020.54 1020.89 1020.97 1021.18 1021.13 1020.99 1020.79 1020.91 1021.27 1021.24 1021.06 1020.96 1021.10 1020.97 1020.78 1020.60 1020.42 1020.47 1020.16 1020.03 1020.02 1020.02 1019.78 1019.68 1019.45 1019.45 1019.14 1018.66 1018.38
1025.11 1025.57 1025.85 1025.63 1025.16 1024.71 1023.85 1023.14 1023.15 1023.26 1022.97 1022.74 1022.09 1021.32 1020.73 1020.87 1021.09 1021.26 1021.31 1021.26 1021.29 1021.50 1021.79 1021.80 1021.39 1021.02 1021.06 1021.09 1021.02 1020.87 1020.64 1020.59 1020.54 1020.33 1020.23 1020.25 1020.19 1019.88 1019.39 1019.09 1018.94 1018.91 1018.67 1018.69
1025.95 1026.50 1026.96 1026.41 1025.88 1024.79 1023.59 1022.18 1022.18 1022.08 1021.83 1021.78 1021.48 1020.79 1021.07 1021.16 1021.35 1021.31 1021.31 1021.69 1022.11 1022.45 1022.38 1021.89 1021.09 1020.97 1021.31 1021.24 1021.21 1020.86 1020.81 1020.91 1020.78 1020.51 1020.34 1020.20 1020.00 1019.70 1019.65 1019.46 1019.32 1019.22 1018.99 1018.90
1026.74 1027.31 1027.63 1027.18 1026.16 1024.99 1022.31 1021.84 1021.67 1021.88 1021.28 1021.33 1021.07 1021.02 1021.22 1021.35 1021.45 1021.62 1022.15 1022.52 1022.70 1022.68 1022.11 1021.41 1021.45 1021.27 1021.22 1021.11 1020.88 1020.86 1020.80 1020.72 1020.70 1020.56 1020.48 1020.24 1020.14 1019.92 1019.77 1019.66 1019.56 1019.40 1019.18 1019.01
1026.82 1027.51 1027.90 1027.64 1026.68 1025.03 1022.19 1021.27 1021.35 1021.52 1021.26 1020.79 1020.99 1021.20 1021.36 1021.17 1021.29 1021.84 1022.68 1022.78 1022.80 1022.29 1021.70 1021.34 1021.24 1021.31 1021.37 1021.17 1020.92 1020.81 1020.67 1020.57 1020.75 1020.70 1020.58 1020.34 1020.22 1020.05 1019.89 1019.79 1019.72 1019.51 1019.25 1018.96
1027.50 1027.50 1027.73 1027.81 1026.88 1025.00 1022.27 1021.56 1021.53 1021.64 1021.31 1021.28 1021.58 1021.56 1021.84 1021.87 1021.97 1022.09 1023.07 1022.97 1022.28 1021.83 1021.56 1021.26 1021.39 1021.43 1021.17 1020.85 1020.72 1020.60 1020.35 1020.37 1020.47 1020.56 1020.39 1020.47 1020.40 1020.20 1020.07 1020.03 1019.81 1019.55 1019.26 1018.95
1027.73 1027.83 1027.78 1027.23 1026.46 1024.28 1022.28 1021.92 1021.69 1022.20 1022.24 1021.93 1022.17 1021.91 1021.99 1022.42 1023.00 1023.18 1023.24 1022.52 1022.36 1021.77 1021.16 1021.01 1021.14 1021.10 1020.63 1020.40 1020.24 1019.99 1020.06 1019.99 1020.13 1020.27 1020.22 1020.32 1020.35 1020.26 1020.11 1019.96 1019.69 1019.38 1019.06 1019.03
1026.80 1026.89 1026.86 1026.70 1025.59 1023.46 1021.98 1022.09 1022.10 1021.99 1022.14 1022.05 1022.01 1022.03 1022.14 1022.63 1023.16 1023.23 1022.56 1022.32 1021.92 1021.34 1020.75 1020.65 1020.62 1020.39 1020.24 1020.07 1019.97 1019.71 1019.54 1019.49 1019.74 1019.91 1019.95 1020.14 1020.15 1020.07 1019.93 1019.71 1019.40 1019.18 1018.92 1018.79
1025.60 1024.98 1024.89 1025.01 1023.30 1021.86 1021.88 1021.59 1021.68 1021.95 1022.46 1022.53 1022.54 1023.00 1023.02 1023.03 1022.66 1022.38 1022.15 1021.86 1021.52 1021.20 1020.81 1020.63 1020.51 1020.05 1019.84 1019.74 1019.62 1019.37 1019.01 1019.25 1019.41 1019.47 1019.65 1019.84 1019.90 1019.88 1019.73 1019.46 1019.11 1018.90 1018.73 1018.61
1024.18 1023.97 1023.99 1023.67 1021.96 1021.47 1021.46 1021.28 1021.90 1022.34 1022.75 1023.04 1022.99 1022.95 1022.55 1022.82 1022.62 1022.21 1021.84 1021.47 1021.38 1021.11 1020.79 1020.49 1020.20 1019.82 1019.51 1019.28 1019.24 1019.12 1018.94 1019.05 1019.05 1019.18 1019.41 1019.53 1019.67 1019.63 1019.45 1019.26 1019.03 1018.83 1018.69 1018.51
1023.54 1023.55 1022.88 1022.29 1021.43 1021.15 1021.40 1021.73 1022.17 1022.52 1022.72 1023.16 1023.32 1023.28 1022.73 1022.57 1022.27 1021.91 1021.53 1021.44 1021.34 1021.02 1020.69 1020.46 1020.09 1019.63 1019.44 1019.23 1019.08 1018.94 1018.90 1018.80 1018.93 1019.07 1019.26 1019.42 1019.57 1019.52 1019.31 1019.20 1019.07 1018.89 1018.83 1018.81
1022.81 1022.39 1022.14 1021.01 1021.01 1021.51 1021.93 1022.40 1022.50 1023.00 1023.05 1023.09 1023.13 1022.75 1022.53 1022.45 1022.18 1021.96 1021.61 1021.52 1021.32 1020.93 1020.63 1020.30 1019.91 1019.63 1019.49 1019.39 1019.20 1019.03 1019.00 1018.89 1018.93 1019.01 1019.21 1019.41 1019.44 1019.35 1019.27 1019.07 1018.87 1019.01 1018.97 1018.78
Thickness
5676 5670 5655 5654 5656 5657 5654 5649 5646 5653 5656 5658 5655 5657 5666 5667 5669 5669 5669 5670 5669 5667 5661 5658 5656 5652 5649 5643 5638 5632 5625 5617 5609 5604 5600 5596 5592 5588 5584 5578 5571 5567 5563 5562
5667 5652 5658 5657 5656 5656 5654 5648 5649 5653 5654 5654 5654 5658 5658 5661 5656 5655 5659 5659 5658 5658 5654 5649 5645 5641 5637 5634 5627 5618 5610 5604 5597 5592 5586 5582 5579 5578 5574 5569 5566 5562 5557 5554
5654 5655 5659 5656 5650 5650 5647 5648 5644 5642 5647 5648 5647 5652 5653 5655 5654 5652 5651 5650 5650 5649 5646 5641 5637 5631 5625 5618 5611 5605 5599 5593 5587 5582 5578 5573 5569 5567 5563 5560 5556 5552 5547 5543
5651 5654 5650 5648 5646 5644 5640 5645 5642 5638 5637 5639 5636 5641 5645 5639 5644 5644 5644 5644 5641 5637 5636 5631 5625 5618 5611 5604 5599 5594 5588 5584 5578 5571 5566 5560 5555 5551 5549 5544 5541 5538 5535 5531
5643 5645 5643 5643 5642 5643 5640 5638 5636 5635 5633 5632 5634 5636 5637 5633 5633 5632 5632 5632 5632 5626 5620 5616 5608 5602 5596 5590 5586 5581 5576 5570 5562 5556 5552 5549 5544 5538 5532 5527 5527 5524 5521 5515
5637 5644 5641 5640 5642 5640 5638 5634 5629 5624 5624 5622 5617 5619 5618 5620 5616 5621 5626 5625 5618 5614 5607 5601 5594 5590 5585 5579 5576 5571 5566 5559 5552 5548 5542 5537 5531 5527 5519 5516 5511 5510 5505 5500
5627 5630 5634 5634 5633 5635 5631 5624 5620 5619 5614 5617 5610 5611 5610 5607 5607 5608 5608 5606 5599 5594 5591 5586 5582 5577 5573 5569 5564 5559 5554 5550 5543 5537 5527 5519 5514 5507 5502 5497 5491 5487 5486 5482
5608 5614 5622 5625 5621 5617 5615 5613 5604 5596 5596 5600 5599 5599 5603 5602 5601 5602 5596 5589 5584 5580 5577 5574 5569 5565 5560 5555 5551 5547 5542 5536 5531 5524 5517 5504 5493 5487 5481 5478 5472 5468 5464 5457
5601 5608 5618 5618 5617 5616 5612 5602 5597 5578 5532 5576 5595 5595 5596 5594 5593 5591 5587 5582 5575 5571 5568 5565 5562 5557 5553 5547 5540 5533 5527 5520 5513 5506 5497 5488 5480 5473 5469 5464 5457 5454 5448 5439
5601 5599 5608 5611 5614 5612 5610 5599 5593 5583 5572 5571 5591 5588 5596 5586 5583 5580 5577 5572 5568 5565 5562 5560 5556 5551 5544 5537 5530 5523 5518 5509 5500 5490 5480 5473 5465 5459 5453 5450 5447 5441 5431 5419
5599 5594 5599 5601 5597 5593 5595 5588 5577 5573 5562 5558 5546 5589 5590 5584 5577 5575 5571 5563 5560 5558 5554 5551 5547 5542 5534 5526 5518 5511 5503 5495 5487 5477 5467 5460 5455 5449 5441 5433 5426 5416 5406 5396
5593 5583 5585 5592 5590 5589 5586 5578 5572 5563 5555 5550 5542 5572 5585 5577 5571 5569 5566 5557 5553 5550 5545 5541 5536 5529 5521 5514 5506 5498 5488 5480 5470 5463 5457 5448 5437 5428 5420 5412 5405 5396 5385 5371
5592 5579 5575 5583 5581 5582 5578 5573 5559 5549 5541 5551 5540 5567 5576 5567 5570 5561 5556 5548 5545 5542 5538 5532 5525 5516 5508 5500 5492 5485 5475 5465 5455 5446 5436 5426 5417 5409 5398 5388 5377 5368 5359 5348
5588 5573 5573 5572 5576 5571 5563 5560 5554 5551 5540 5544 5555 5560 5574 5569 5561 5554 5546 5538 5537 5532 5527 5520 5512 5504 5493 5485 5478 5468 5458 5447 5439 5429 5420 5409 5399 5389 5379 5367 5355 5345 5334 5323
5580 5571 5566 5567 5568 5562 5563 5558 5550 5545 5546 5536 5556 5554 5558 5557 5548 5543 5539 5534 5530 5526 5516 5503 5494 5488 5480 5468 5459 5450 5439 5428 5417 5409 5401 5391 5379 5371 5358 5349 5335 5323 5314 5306
5563 5560 5552 5552 5546 5548 5551 5555 5548 5543 5543 5540 5540 5544 5552 5544 5537 5532 5528 5524 5519 5507 5492 5485 5480 5473 5462 5452 5442 5432 5422 5410 5398 5389 5379 5368 5357 5347 5338 5326 5316 5305 5300 5291
5556 5544 5530 5547 5528 5536 5548 5557 5547 5549 5548 5545 5540 5551 5538 5534 5528 5525 5521 5512 5494 5479 5470 5464 5463 5457 5443 5432 5421 5414 5404 5391 5379 5370 5360 5350 5339 5326 5313 5303 5294 5288 5283 5277
5525 5521 5510 5526 5517 5537 5566 5551 5548 5543 5550 5542 5540 5536 5530 5527 5521 5513 5495 5481 5468 5459 5454 5454 5446 5436 5425 5415 5406 5394 5384 5375 5363 5354 5342 5330 5316 5305 5296 5288 5280 5274 5269 5262
5532 5513 5509 5513 5517 5526 5556 5552 5546 5538 5544 5542 5535 5531 5524 5521 5513 5502 5474 5465 5455 5446 5444 5438 5428 5416 5405 5395 5387 5376 5367 5358 5346 5334 5322 5309 5299 5290 5283 5275 5267 5261 5255 5249
5513 5502 5516 5495 5502 5515 5538 5537 5533 5530 5530 5527 5519 5513 5503 5496 5483 5489 5453 5443 5441 5434 5428 5422 5410 5397 5389 5382 5372 5362 5353 5340 5328 5315 5305 5294 5284 5278 5270 5261 5255 5249 5242 5235
5499 5493 5500 5499 5494 5515 5528 5524 5522 5508 5512 5506 5500 5498 5490 5478 5460 5446 5438 5437 5429 5424 5419 5409 5397 5386 5381 5371 5361 5350 5337 5326 5312 5300 5291 5281 5272 5265 5258 5250 5244 5238 5230 5221
5520 5506 5490 5478 5482 5501 5521 5517 5512 5512 5503 5499 5494 5484 5477 5459 5442 5431 5429 5423 5419 5415 5410 5399 5388 5379 5367 5357 5347 5337 5326 5316 5302 5290 5282 5272 5264 5256 5248 5241 5234 5225 5218 5210
5518 5517 5512 5504 5515 5521 5513 5514 5509 5498 5485 5479 5472 5455 5446 5437 5434 5430 5421 5414 5408 5399 5392 5381 5371 5364 5355 5343 5333 5325 5317 5304 5293 5285 5276 5266 5256 5248 5240 5233 5226 5217 5209 5201
5513 5508 5503 5501 5522 5517 5511 5507 5491 5481 5468 5458 5453 5445 5439 5428 5419 5416 5409 5402 5393 5385 5374 5365 5357 5351 5344 5334 5322 5312 5306 5295 5287 5279 5269 5259 5250 5241 5233 5225 5216 5208 5200 5193
5516 5500 5501 5500 5514 5509 5502 5488 5477 5464 5456 5444 5435 5426 5421 5415 5411 5403 5397 5386 5375 5365 5358 5350 5342 5338 5330 5322 5312 5302 5294 5287 5278 5271 5262 5253 5243 5234 5227 5217 5207 5199 5190 5182
5504 5502 5494 5504 5504 5491 5481 5464 5456 5445 5439 5431 5422 5418 5409 5397 5392 5385 5379 5367 5356 5349 5343 5337 5331 5323 5315 5306 5298 5291 5283 5277 5271 5264 5256 5246 5237 5229 5220 5212 5202 5190 5181 5175